Location: Henham
(51.9333°N, 0.2500°E)
Time: 19:18:54
(UTC+00:00)

Cosmos 1605 Rocket - Pass Details

Date: 23 October 2019
Orbit: 944 x 1006 km, 82.9° (Epoch: 10 November)

Event Time Altitude Azimuth Distance (km) Brightness Sun altitude
Rises 17:50:16 0° 349° (N) 3,671 7.1 -10.1°
Reaches altitude 10° 17:52:47 10° 350° (N) 2,712 6.4 -10.5°
Maximum altitude 17:59:00 90° 262° (W) 961 4.0 -11.4°
Drops below altitude 10° 18:05:06 10° 172° (S) 2,663 6.2 -12.4°
Sets 18:07:34 0° 173° (S) 3,601 6.9 -12.7°
